When you browse on this site, cookies collect data to enhance your experience and personalize the content and advertising you see.
Visit our Privacy Policy to learn more. By continuing to use the site, you agree to this use of cookies and data.
  • în România
  • Lista ţărilor
  • Pe 7 zile
  • Temperatura apei
  • Meteo pe hartă
  • Widget-uri
  • user-avatar
    Intrare

    Meteo pe oră la Arnedillo

    Astăzi, 20 Octombrie, Duminică

    Timp Temperatura Precipitaţii Vânt Presiune Umiditate
    00:00 +12°C° 0 mm 3 m/s 687 mmHg 89%
    01:00 +12°C° 0.1 mm 4 m/s 687 mmHg 88%
    02:00 +12°C° 0.1 mm 4 m/s 687 mmHg 86%
    03:00 +11°C° 0.1 mm 4 m/s 686 mmHg 85%
    04:00 +11°C° 0.2 mm 4 m/s 687 mmHg 83%
    05:00 +10°C° 0.2 mm 4 m/s 687 mmHg 82%
    06:00 +10°C° 0 mm 3 m/s 688 mmHg 81%
    07:00 +11°C° 0 mm 3 m/s 689 mmHg 74%
    08:00 +11°C° 0 mm 3 m/s 690 mmHg 67%
    09:00 +12°C° 0 mm 3 m/s 690 mmHg 60%
    10:00 +12°C° 0.3 mm 3 m/s 691 mmHg 59%
    11:00 +13°C° 0.3 mm 3 m/s 691 mmHg 58%
    12:00 +13°C° 0.3 mm 3 m/s 691 mmHg 57%
    13:00 +12°C° 0.6 mm 3 m/s 691 mmHg 62%
    14:00 +12°C° 0.6 mm 3 m/s 691 mmHg 67%
    15:00 +11°C° 0.6 mm 3 m/s 691 mmHg 72%
    16:00 +10°C° 1.1 mm 3 m/s 692 mmHg 76%
    17:00 +9°C° 1.1 mm 3 m/s 692 mmHg 79%
    18:00 +9°C° 1.1 mm 2 m/s 693 mmHg 83%
    19:00 +8°C° 0.3 mm 2 m/s 693 mmHg 82%
    20:00 +8°C° 0.3 mm 2 m/s 694 mmHg 81%
    21:00 +8°C° 0.3 mm 2 m/s 694 mmHg 80%
    22:00 +8°C° 0 mm 2 m/s 695 mmHg 80%
    23:00 +9°C° 0 mm 1 m/s 695 mmHg 80%

    Mâine, 21 Octombrie, Luni

    Timp Temperatura Precipitaţii Vânt Presiune Umiditate
    00:00 +9°C° 0 mm 1 m/s 695 mmHg 80%
    01:00 +8°C° 0 mm 1 m/s 695 mmHg 79%
    02:00 +8°C° 0 mm 1 m/s 695 mmHg 79%
    03:00 +8°C° 0 mm 1 m/s 695 mmHg 79%
    04:00 +7°C° 0 mm 1 m/s 695 mmHg 80%
    05:00 +7°C° 0 mm 1 m/s 696 mmHg 82%
    06:00 +7°C° 0 mm 1 m/s 696 mmHg 83%
    07:00 +8°C° 0 mm 1 m/s 696 mmHg 77%
    08:00 +9°C° 0 mm 1 m/s 697 mmHg 70%
    09:00 +10°C° 0 mm 0 m/s 697 mmHg 64%
    10:00 +12°C° 0 mm 1 m/s 697 mmHg 60%
    11:00 +12°C° 0 mm 1 m/s 697 mmHg 57%
    12:00 +13°C° 0 mm 2 m/s 697 mmHg 53%
    13:00 +14°C° 0.1 mm 2 m/s 697 mmHg 53%
    14:00 +14°C° 0.1 mm 2 m/s 697 mmHg 52%
    15:00 +14°C° 0.1 mm 2 m/s 697 mmHg 52%
    16:00 +13°C° 0.1 mm 2 m/s 697 mmHg 57%
    17:00 +12°C° 0.1 mm 2 m/s 697 mmHg 63%
    18:00 +10°C° 0.1 mm 2 m/s 697 mmHg 68%
    19:00 +10°C° 0 mm 1 m/s 697 mmHg 70%
    20:00 +9°C° 0 mm 1 m/s 697 mmHg 73%
    21:00 +9°C° 0 mm 1 m/s 697 mmHg 75%
    22:00 +9°C° 0 mm 1 m/s 697 mmHg 76%
    23:00 +8°C° 0 mm 1 m/s 697 mmHg 77%

    Poimâine, 22 Octombrie, Marţi

    Timp Temperatura Precipitaţii Vânt Presiune Umiditate
    00:00 +8°C° 0 mm 1 m/s 697 mmHg 78%
    01:00 +8°C° 0 mm 1 m/s 697 mmHg 79%
    02:00 +8°C° 0 mm 1 m/s 696 mmHg 80%
    03:00 +8°C° 0 mm 1 m/s 696 mmHg 82%
    04:00 +8°C° 0 mm 1 m/s 696 mmHg 83%
    05:00 +8°C° 0 mm 1 m/s 696 mmHg 85%
    06:00 +7°C° 0 mm 1 m/s 695 mmHg 86%
    07:00 +7°C° 0 mm 2 m/s 695 mmHg 83%
    08:00 +8°C° 0 mm 2 m/s 695 mmHg 79%
    09:00 +10°C° 0 mm 3 m/s 695 mmHg 75%
    10:00 +10°C° 0.3 mm 4 m/s 695 mmHg 76%
    11:00 +9°C° 0.3 mm 5 m/s 694 mmHg 77%
    12:00 +9°C° 0.3 mm 5 m/s 694 mmHg 78%
    13:00 +8°C° 2.8 mm 5 m/s 693 mmHg 82%
    14:00 +8°C° 2.8 mm 6 m/s 692 mmHg 87%
    15:00 +7°C° 2.8 mm 6 m/s 691 mmHg 91%
    16:00 +8°C° 2.1 mm 6 m/s 691 mmHg 91%
    17:00 +8°C° 2.1 mm 6 m/s 691 mmHg 92%
    18:00 +8°C° 2.1 mm 6 m/s 690 mmHg 92%
    19:00 +8°C° 1.3 mm 6 m/s 690 mmHg 92%
    20:00 +8°C° 1.3 mm 5 m/s 690 mmHg 93%
    21:00 +8°C° 1.3 mm 4 m/s 689 mmHg 93%
    22:00 +8°C° 0.9 mm 4 m/s 689 mmHg 94%
    23:00 +8°C° 0.9 mm 4 m/s 688 mmHg 95%

    23 Octombrie, Miercuri

    Timp Temperatura Precipitaţii Vânt Presiune Umiditate
    00:00 +9°C° 0.9 mm 3 m/s 688 mmHg 96%
    01:00 +10°C° 0.6 mm 4 m/s 687 mmHg 95%
    02:00 +10°C° 0.6 mm 4 m/s 687 mmHg 95%
    03:00 +10°C° 0.6 mm 4 m/s 687 mmHg 94%
    04:00 +10°C° 0.1 mm 4 m/s 687 mmHg 94%
    05:00 +10°C° 0.1 mm 4 m/s 686 mmHg 93%
    06:00 +10°C° 0.1 mm 4 m/s 686 mmHg 92%
    07:00 +10°C° 1 mm 3 m/s 687 mmHg 93%
    08:00 +12°C° 1 mm 2 m/s 687 mmHg 93%
    09:00 +12°C° 1 mm 1 m/s 687 mmHg 93%
    10:00 +12°C° 0.5 mm 1 m/s 687 mmHg 91%
    11:00 +12°C° 0.5 mm 1 m/s 687 mmHg 90%
    12:00 +12°C° 0.5 mm 1 m/s 687 mmHg 88%
    13:00 +12°C° 0.5 mm 1 m/s 688 mmHg 85%
    14:00 +13°C° 0.5 mm 1 m/s 688 mmHg 82%
    15:00 +13°C° 0.5 mm 1 m/s 688 mmHg 80%
    16:00 +12°C° 1.6 mm 2 m/s 688 mmHg 83%
    17:00 +10°C° 1.6 mm 2 m/s 689 mmHg 86%
    18:00 +9°C° 1.6 mm 3 m/s 689 mmHg 89%
    19:00 +9°C° 1.3 mm 2 m/s 689 mmHg 89%
    20:00 +9°C° 1.3 mm 2 m/s 690 mmHg 89%
    21:00 +8°C° 1.3 mm 2 m/s 690 mmHg 89%
    22:00 +8°C° 1.8 mm 2 m/s 690 mmHg 89%
    23:00 +9°C° 1.8 mm 1 m/s 690 mmHg 90%

    24 Octombrie, Joi

    Timp Temperatura Precipitaţii Vânt Presiune Umiditate
    00:00 +9°C° 1.8 mm 1 m/s 690 mmHg 91%
    01:00 +9°C° 1.7 mm 1 m/s 691 mmHg 91%
    02:00 +9°C° 1.7 mm 1 m/s 691 mmHg 90%
    03:00 +9°C° 1.7 mm 1 m/s 691 mmHg 90%
    04:00 +9°C° 0.5 mm 1 m/s 692 mmHg 89%
    05:00 +9°C° 0.5 mm 1 m/s 692 mmHg 88%
    06:00 +9°C° 0.5 mm 1 m/s 693 mmHg 87%
    07:00 +9°C° 0.1 mm 2 m/s 693 mmHg 82%
    08:00 +10°C° 0.1 mm 3 m/s 694 mmHg 77%
    09:00 +10°C° 0.1 mm 3 m/s 694 mmHg 72%
    10:00 +11°C° 0 mm 4 m/s 695 mmHg 69%
    11:00 +12°C° 0 mm 5 m/s 695 mmHg 65%
    12:00 +13°C° 0 mm 6 m/s 695 mmHg 62%
    13:00 +13°C° 0 mm 6 m/s 695 mmHg 65%
    14:00 +11°C° 0 mm 6 m/s 695 mmHg 69%
    15:00 +11°C° 0 mm 6 m/s 696 mmHg 72%
    16:00 +10°C° 0 mm 5 m/s 696 mmHg 76%
    17:00 +11°C° 0 mm 4 m/s 696 mmHg 80%
    18:00 +10°C° 0 mm 3 m/s 696 mmHg 84%
    19:00 +10°C° 0 mm 2 m/s 697 mmHg 84%
    20:00 +10°C° 0 mm 2 m/s 697 mmHg 83%
    21:00 +10°C° 0 mm 2 m/s 698 mmHg 83%
    22:00 +10°C° 0 mm 2 m/s 698 mmHg 83%
    23:00 +10°C° 0 mm 2 m/s 698 mmHg 83%

    25 Octombrie, Vineri

    Timp Temperatura Precipitaţii Vânt Presiune Umiditate
    00:00 +10°C° 0 mm 2 m/s 699 mmHg 83%
    01:00 +10°C° 0 mm 2 m/s 698 mmHg 85%
    02:00 +10°C° 0 mm 2 m/s 698 mmHg 86%
    03:00 +9°C° 0 mm 2 m/s 698 mmHg 88%
    04:00 +9°C° 0 mm 2 m/s 698 mmHg 88%
    05:00 +9°C° 0 mm 2 m/s 698 mmHg 87%
    06:00 +9°C° 0 mm 2 m/s 698 mmHg 87%
    07:00 +12°C° 0 mm 2 m/s 698 mmHg 81%
    08:00 +13°C° 0 mm 2 m/s 698 mmHg 76%
    09:00 +15°C° 0 mm 2 m/s 699 mmHg 70%
    10:00 +16°C° 0 mm 2 m/s 699 mmHg 64%
    11:00 +18°C° 0 mm 2 m/s 699 mmHg 58%
    12:00 +19°C° 0 mm 2 m/s 699 mmHg 52%
    13:00 +19°C° 0 mm 2 m/s 698 mmHg 52%
    14:00 +19°C° 0 mm 2 m/s 698 mmHg 52%
    15:00 +19°C° 0 mm 2 m/s 698 mmHg 52%
    16:00 +18°C° 0 mm 2 m/s 697 mmHg 59%
    17:00 +16°C° 0 mm 1 m/s 697 mmHg 67%
    18:00 +14°C° 0 mm 1 m/s 697 mmHg 74%
    19:00 +14°C° 0 mm 1 m/s 697 mmHg 75%
    20:00 +13°C° 0 mm 1 m/s 697 mmHg 76%
    21:00 +13°C° 0 mm 1 m/s 697 mmHg 77%
    22:00 +13°C° 0 mm 1 m/s 697 mmHg 76%
    23:00 +12°C° 0 mm 1 m/s 697 mmHg 75%
    Arată mai mult